| time (UTC) | temp C | wind direction | speed KPH | gust KPH | rain 1hr cm | rain 24hr cm | rain mn cm | humidity % | barometer mb |
| 20260506081021 | 20 | 0.0 | 0.0 | 0.00 | 0.00 | 0.00 | 47 | 1010.8 | |
| 20260506073111 | 20 | 0.0 | 0.0 | 0.00 | 0.00 | 0.00 | 47 | 1010.5 | |
| 20260506072020 | 20 | 0.0 | 0.0 | 0.00 | 0.00 | 0.00 | 48 | 1010.6 | |
| 20260506071020 | 20 | 0.0 | 0.0 | 0.00 | 0.00 | 0.00 | 47 | 1010.6 | |
| 20260506062021 | 20 | 0.0 | 0.0 | 0.00 | 0.00 | 0.00 | 43 | 1010.4 | |
| 20260506061023 | 21 | 0.0 | 0.0 | 0.00 | 0.00 | 0.00 | 42 | 1010.5 | |
| 20260506051020 | 21 | 0.0 | 0.0 | 0.00 | 0.00 | 0.00 | 39 | 1010.4 | |
| 20260506045046 | 21 | 0.0 | 0.0 | 0.00 | 0.00 | 0.00 | 38 | 1009.9 | |
| 20260506044021 | 21 | 0.0 | 0.0 | 0.00 | 0.00 | 0.00 | 38 | 1009.7 | |
| 20260506043021 | 22 | 0.0 | 0.0 | 0.00 | 0.00 | 0.00 | 38 | 1009.9 | |
| 20260506042021 | 22 | 0.0 | 0.0 | 0.00 | 0.00 | 0.00 | 37 | 1009.5 | |
| 20260506041021 | 22 | 0.0 | 0.0 | 0.00 | 0.00 | 0.00 | 37 | 1009.5 | |
| 20260506040021 | 22 | 0.0 | 0.0 | 0.00 | 0.00 | 0.00 | 35 | 1009.6 | |
| 20260506035021 | 23 | 0.0 | 0.0 | 0.00 | 0.00 | 0.00 | 33 | 1009.2 | |
| 20260506034021 | 23 | 0.0 | 0.0 | 0.00 | 0.00 | 0.00 | 33 | 1009.0 | |
| 20260506033021 | 23 | 0.0 | 0.0 | 0.00 | 0.00 | 0.00 | 33 | 1008.9 | |
| 20260506032046 | 24 | 0.0 | 0.0 | 0.00 | 0.00 | 0.00 | 31 | 1008.3 | |
| 20260506031021 | 25 | 0.0 | 0.0 | 0.00 | 0.00 | 0.00 | 31 | 1008.2 | |
| 20260506030049 | 25 | 0.0 | 0.0 | 0.00 | 0.00 | 0.00 | 29 | 1008.0 | |
| 20260506025021 | 25 | 0.0 | 0.0 | 0.00 | 0.00 | 0.00 | 28 | 1007.8 | |
| 20260506024021 | 25 | 0.0 | 0.0 | 0.00 | 0.00 | 0.00 | 28 | 1007.6 | |
| 20260506023046 | 26 | 0.0 | 0.0 | 0.00 | 0.00 | 0.00 | 27 | 1007.5 | |
| 20260506022020 | 26 | 0.0 | 0.0 | 0.00 | 0.00 | 0.00 | 26 | 1007.6 | |
| 20260506021046 | 26 | 0.0 | 0.0 | 0.00 | 0.00 | 0.00 | 26 | 1007.5 | |
| 20260506020021 | 26 | 0.0 | 0.0 | 0.00 | 0.00 | 0.00 | 26 | 1007.6 | |
| 20260506015020 | 27 | 0.0 | 0.0 | 0.00 | 0.00 | 0.00 | 25 | 1007.4 | |
| 20260506014046 | 27 | 0.0 | 0.0 | 0.00 | 0.00 | 0.00 | 24 | 1007.6 | |
| 20260506013020 | 27 | 0.0 | 0.0 | 0.00 | 0.00 | 0.00 | 24 | 1007.5 | |
| 20260506012021 | 27 | 0.0 | 0.0 | 0.00 | 0.00 | 0.00 | 24 | 1007.3 | |
| 20260506011021 | 27 | 0.0 | 0.0 | 0.00 | 0.00 | 0.00 | 24 | 1007.2 | |
| 20260506010021 | 28 | 0.0 | 0.0 | 0.00 | 0.00 | 0.00 | 23 | 1007.2 | |
| 20260506005021 | 28 | 0.0 | 0.0 | 0.00 | 0.00 | 0.00 | 22 | 1007.2 | |
| 20260506004021 | 28 | 0.0 | 0.0 | 0.00 | 0.00 | 0.00 | 22 | 1007.3 | |
| 20260506003021 | 28 | 0.0 | 0.0 | 0.00 | 0.00 | 0.00 | 23 | 1007.2 | |
| 20260506002021 | 27 | 0.0 | 0.0 | 0.00 | 0.00 | 0.00 | 22 | 1007.3 | |
| 20260506001045 | 27 | 0.0 | 0.0 | 0.00 | 0.00 | 0.00 | 23 | 1007.4 | |
| 20260506000020 | 27 | 0.0 | 0.0 | 0.00 | 0.00 | 0.00 | 23 | 1007.7 | |
| 20260505235021 | 27 | 0.0 | 0.0 | 0.00 | 0.00 | 0.00 | 22 | 1007.6 | |
| 20260505234020 | 27 | 0.0 | 0.0 | 0.00 | 0.00 | 0.00 | 22 | 1007.8 | |
| 20260505233020 | 27 | 0.0 | 0.0 | 0.00 | 0.00 | 0.00 | 23 | 1008.0 | |
| 20260505232021 | 27 | 0.0 | 0.0 | 0.00 | 0.00 | 0.00 | 22 | 1008.3 | |
| 20260505231021 | 27 | 0.0 | 0.0 | 0.00 | 0.00 | 0.00 | 22 | 1008.4 | |
| 20260505230021 | 28 | 0.0 | 0.0 | 0.00 | 0.00 | 0.00 | 22 | 1008.4 | |
| 20260505225021 | 28 | 0.0 | 0.0 | 0.00 | 0.00 | 0.00 | 22 | 1008.4 | |
| 20260505224022 | 28 | 0.0 | 0.0 | 0.00 | 0.00 | 0.00 | 22 | 1008.4 | |
| 20260505223046 | 28 | 0.0 | 0.0 | 0.00 | 0.00 | 0.00 | 21 | 1008.6 | |
| 20260505222020 | 28 | 0.0 | 0.0 | 0.00 | 0.00 | 0.00 | 22 | 1008.9 | |
| 20260505221045 | 28 | 0.0 | 0.0 | 0.00 | 0.00 | 0.00 | 21 | 1008.9 | |
| 20260505220021 | 28 | 0.0 | 0.0 | 0.00 | 0.00 | 0.00 | 21 | 1009.0 | |
| 20260505215021 | 28 | 0.0 | 0.0 | 0.00 | 0.00 | 0.00 | 21 | 1008.8 | |
| 20260505214020 | 28 | 0.0 | 0.0 | 0.00 | 0.00 | 0.00 | 21 | 1008.9 | |
| 20260505213021 | 28 | 0.0 | 0.0 | 0.00 | 0.00 | 0.00 | 21 | 1008.7 | |
| 20260505212046 | 29 | 0.0 | 0.0 | 0.00 | 0.00 | 0.00 | 21 | 1009.1 | |
| 20260505211020 | 29 | 0.0 | 0.0 | 0.00 | 0.00 | 0.00 | 20 | 1009.0 | |
| 20260505210020 | 28 | 0.0 | 0.0 | 0.00 | 0.00 | 0.00 | 20 | 1008.8 | |
| 20260505205020 | 29 | 0.0 | 0.0 | 0.00 | 0.00 | 0.00 | 20 | 1009.3 | |
| 20260505204020 | 29 | 0.0 | 0.0 | 0.00 | 0.00 | 0.00 | 21 | 1009.5 | |
| 20260505203020 | 29 | 0.0 | 0.0 | 0.00 | 0.00 | 0.00 | 20 | 1009.6 | |
| 20260505202020 | 30 | 0.0 | 0.0 | 0.00 | 0.00 | 0.00 | 19 | 1009.8 | |
| 20260505201020 | 30 | 0.0 | 0.0 | 0.00 | 0.00 | 0.00 | 19 | 1009.6 | |
| 20260505200045 | 29 | 0.0 | 0.0 | 0.00 | 0.00 | 0.00 | 19 | 1009.6 | |
| 20260505195020 | 29 | 0.0 | 0.0 | 0.00 | 0.00 | 0.00 | 22 | 1009.8 | |
| 20260505194020 | 28 | 0.0 | 0.0 | 0.00 | 0.00 | 0.00 | 22 | 1009.7 | |
| 20260505193020 | 28 | 0.0 | 0.0 | 0.00 | 0.00 | 0.00 | 23 | 1009.7 | |
| 20260505192022 | 28 | 0.0 | 0.0 | 0.00 | 0.00 | 0.00 | 22 | 1009.8 | |
| 20260505191022 | 28 | 0.0 | 0.0 | 0.00 | 0.00 | 0.00 | 23 | 1010.1 | |
| 20260505190022 | 28 | 0.0 | 0.0 | 0.00 | 0.00 | 0.00 | 22 | 1010.2 | |
| 20260505185047 | 28 | 0.0 | 0.0 | 0.00 | 0.00 | 0.00 | 22 | 1010.3 | |
| 20260505184022 | 28 | 0.0 | 0.0 | 0.00 | 0.00 | 0.00 | 21 | 1010.5 | |
| 20260505183047 | 28 | 0.0 | 0.0 | 0.00 | 0.00 | 0.00 | 21 | 1010.6 | |
| 20260505181022 | 28 | 0.0 | 0.0 | 0.00 | 0.00 | 0.00 | 22 | 1010.8 | |
| 20260505180047 | 28 | 0.0 | 0.0 | 0.00 | 0.00 | 0.00 | 22 | 1010.8 | |
| 20260505175022 | 28 | 0.0 | 0.0 | 0.00 | 0.00 | 0.00 | 22 | 1011.1 | |
| 20260505174022 | 28 | 0.0 | 0.0 | 0.00 | 0.00 | 0.00 | 21 | 1011.0 | |
| 20260505173022 | 28 | 0.0 | 0.0 | 0.00 | 0.00 | 0.00 | 22 | 1011.0 | |
| 20260505172047 | 28 | 0.0 | 0.0 | 0.00 | 0.00 | 0.00 | 21 | 1010.9 | |
| 20260505171021 | 28 | 0.0 | 0.0 | 0.00 | 0.00 | 0.00 | 21 | 1010.9 | |
| 20260505170047 | 28 | 0.0 | 0.0 | 0.00 | 0.00 | 0.00 | 22 | 1011.0 | |
| 20260505165022 | 27 | 0.0 | 0.0 | 0.00 | 0.00 | 0.00 | 22 | 1010.9 | |
| 20260505164047 | 27 | 0.0 | 0.0 | 0.00 | 0.00 | 0.00 | 23 | 1010.7 | |
| 20260505163022 | 27 | 0.0 | 0.0 | 0.00 | 0.00 | 0.00 | 23 | 1010.6 | |
| 20260505162024 | 27 | 0.0 | 0.0 | 0.00 | 0.00 | 0.00 | 23 | 1010.9 | |
| 20260505161022 | 26 | 0.0 | 0.0 | 0.00 | 0.00 | 0.00 | 25 | 1010.8 | |
| 20260505153021 | 25 | 0.0 | 0.0 | 0.00 | 0.00 | 0.00 | 29 | 1010.5 | |
| 20260505152022 | 23 | 0.0 | 0.0 | 0.00 | 0.00 | 0.00 | 31 | 1010.4 | |
| 20260505151022 | 23 | 0.0 | 0.0 | 0.00 | 0.00 | 0.00 | 33 | 1010.2 | |
| 20260505125022 | 17 | 0.0 | 0.0 | 0.00 | 0.00 | 0.00 | 80 | 1008.7 | |
| 20260505124046 | 17 | 0.0 | 0.0 | 0.00 | 0.00 | 0.00 | 80 | 1008.7 | |
| 20260505123021 | 17 | 0.0 | 0.0 | 0.00 | 0.00 | 0.00 | 80 | 1008.7 | |
| 20260505122022 | 17 | 0.0 | 0.0 | 0.00 | 0.00 | 0.00 | 79 | 1008.4 | |
| 20260505121023 | 17 | 0.0 | 0.0 | 0.00 | 0.00 | 0.00 | 78 | 1008.4 | |
| 20260505120021 | 17 | 0.0 | 0.0 | 0.00 | 0.00 | 0.00 | 78 | 1008.3 | |
| 20260505115047 | 17 | 0.0 | 0.0 | 0.00 | 0.00 | 0.00 | 77 | 1008.4 | |
| 20260505114021 | 18 | 0.0 | 0.0 | 0.00 | 0.00 | 0.00 | 75 | 1008.3 | |
| 20260505113021 | 19 | 0.0 | 0.0 | 0.00 | 0.00 | 0.00 | 70 | 1008.6 | |
| 20260505112021 | 20 | 0.0 | 0.0 | 0.00 | 0.00 | 0.00 | 61 | 1008.5 | |
| 20260505111021 | 20 | 0.0 | 0.0 | 0.00 | 0.00 | 0.00 | 56 | 1008.4 | |
| 20260505110136 | 20 | 0.0 | 0.0 | 0.00 | 0.00 | 0.00 | 55 | 1008.4 | |
| 20260505102021 | 22 | 0.0 | 0.0 | 0.00 | 0.00 | 0.00 | 47 | 1008.6 | |
| 20260505101111 | 22 | 0.0 | 0.0 | 0.00 | 0.00 | 0.00 | 45 | 1008.6 | |
| 20260505100021 | 21 | 0.0 | 0.0 | 0.00 | 0.00 | 0.00 | 47 | 1008.5 | |
| 20260505095021 | 19 | 0.0 | 0.0 | 0.00 | 0.00 | 0.00 | 66 | 1008.2 | |
| 20260505094046 | 19 | 0.0 | 0.0 | 0.00 | 0.00 | 0.00 | 71 | 1008.3 | |
| 20260505093021 | 19 | 0.0 | 0.0 | 0.00 | 0.00 | 0.00 | 70 | 1008.0 | |
| 20260505092021 | 20 | 0.0 | 0.0 | 0.00 | 0.00 | 0.00 | 70 | 1007.8 | |
| 20260505091021 | 20 | 0.0 | 0.0 | 0.00 | 0.00 | 0.00 | 69 | 1008.0 | |
| 20260505090046 | 20 | 0.0 | 0.0 | 0.00 | 0.00 | 0.00 | 69 | 1008.0 | |
| 20260505085021 | 20 | 0.0 | 0.0 | 0.00 | 0.00 | 0.00 | 68 | 1008.1 | |
| 20260505084021 | 21 | 0.0 | 0.0 | 0.00 | 0.00 | 0.00 | 66 | 1008.5 | |
| 20260505083021 | 21 | 0.0 | 0.0 | 0.00 | 0.00 | 0.00 | 66 | 1008.5 | |
| 20260505082021 | 21 | 0.0 | 0.0 | 0.00 | 0.00 | 0.00 | 65 | 1008.4 |